Frederick, OK

8:38 PM CST on February 07, 2016 (GMT -0600)
Frederick Municipal

Weather History for KFDR - March, 2013

Change the Weather History Date:

Saturday, March 9, 2013

  Actual Average (KLTS) Record (KLTS)
Temperature  
Mean Temperature 64 °F -  
Max Temperature 73 °F 59 °F 83 °F (2009)
Min Temperature 54 °F 35 °F 23 °F (1998)
Degree Days  
Heating Degree Days 2    
Growing Degree Days 14 (Base 50)    
Moisture  
Dew Point 47 °F    
Average Humidity 63    
Maximum Humidity 94    
Minimum Humidity 18    
Precipitation  
Precipitation 0.02 in - - ()
Sea Level Pressure  
Sea Level Pressure 29.69 in    
Wind  
Wind Speed 16 mph (South)    
Max Wind Speed 29 mph    
Max Gust Speed 37 mph    
Visibility 10 miles    
Events Rain , Thunderstorm    
Averages and records for this station are not official NWS values.
T = Trace of Precipitation, MM = Missing Value Source: NWS Daily Summary

Daily Weather History Graph

Daily Weather History Graph

Search for Another Location

Airport or City:

Trip Planner

Search our weather history database for the weather conditions in past years. The results will help you decide how hot, cold, wet, or windy it might be!

Date:

Astronomy

Mar. 09, 2013 Rise Set
Actual Time 6:54 AM CST 6:39 PM CST
Civil Twilight 6:29 AM CST 7:04 PM CST
Nautical Twilight 6:00 AM CST 7:33 PM CST
Astronomical Twilight 5:30 AM CST 8:02 PM CST
Moon 5:14 AM CST (3/9) 4:46 PM CST (3/9)
Length of Visible Light 12h 35m
Length of Day
11h 44m
Waning Crescent, 5% of the Moon is Illuminated
Mar 9
Waning Crescent
Mar 11
New
Mar 19
First Quarter
Mar 27
Full
Apr 2
Last Quarter

Hourly Weather History & Observations

Time (CST) Temp. Dew Point Humidity Pressure Visibility Wind Dir Wind Speed Gust Speed Precip Events Conditions
12:53 AM 63.0 °F 57.0 °F 81% 29.79 in 10.0 mi SSE 16.1 mph - N/A   Overcast
1:43 AM 62.6 °F 57.2 °F 82% 29.80 in 10.0 mi SSE 17.3 mph - N/A   Overcast
1:53 AM 63.0 °F 57.0 °F 81% 29.76 in 10.0 mi SSE 18.4 mph - N/A   Overcast
2:16 AM 62.6 °F 55.4 °F 77% 29.79 in 10.0 mi SSE 17.3 mph - N/A   Overcast
2:36 AM 62.6 °F 55.4 °F 77% 29.77 in 10.0 mi SSE 15.0 mph - N/A   Overcast
2:53 AM 62.1 °F 55.9 °F 80% 29.74 in 10.0 mi SSE 16.1 mph - N/A   Overcast
3:18 AM 62.6 °F 55.4 °F 77% 29.77 in 10.0 mi SSE 15.0 mph - N/A   Overcast
3:53 AM 62.1 °F 55.9 °F 80% 29.74 in 10.0 mi SSE 12.7 mph - 0.00 in Rain Light Rain
4:24 AM 60.8 °F 55.4 °F 82% 29.76 in 10.0 mi SE 12.7 mph - 0.00 in   Overcast
4:53 AM 61.0 °F 55.9 °F 83% 29.73 in 9.0 mi SSE 13.8 mph - 0.00 in Rain Light Rain
5:53 AM 59.0 °F 57.0 °F 93% 29.73 in 7.0 mi SE 15.0 mph - 0.01 in Rain Light Rain
6:09 AM 59.0 °F 57.2 °F 94% 29.75 in 8.0 mi SE 16.1 mph - 0.01 in Rain Light Rain
6:30 AM 59.0 °F 55.4 °F 88% 29.75 in 7.0 mi SE 16.1 mph - 0.01 in Rain Light Rain
6:46 AM 59.0 °F 55.4 °F 88% 29.74 in 9.0 mi SE 16.1 mph - 0.01 in   Overcast
6:53 AM 59.0 °F 55.9 °F 90% 29.71 in 10.0 mi SE 17.3 mph - 0.01 in   Overcast
7:53 AM 59.0 °F 55.9 °F 90% 29.70 in 10.0 mi SE 20.7 mph - N/A   Overcast
8:53 AM 62.1 °F 57.9 °F 86% 29.69 in 10.0 mi SSE 21.9 mph 28.8 mph N/A   Clear
9:53 AM 66.0 °F 59.0 °F 78% 29.68 in 10.0 mi South 25.3 mph 33.4 mph N/A   Mostly Cloudy
10:39 AM 69.8 °F 59.0 °F 68% 29.68 in 10.0 mi South 24.2 mph 29.9 mph N/A   Mostly Cloudy
10:53 AM 72.0 °F 59.0 °F 64% 29.64 in 10.0 mi South 25.3 mph 32.2 mph N/A   Scattered Clouds
11:53 AM 64.0 °F 54.0 °F 70% 29.66 in 10.0 mi West 21.9 mph 36.8 mph N/A   Overcast
12:00 PM 64.4 °F 48.2 °F 56% 29.68 in 10.0 mi WNW 20.7 mph 31.1 mph N/A   Mostly Cloudy
12:53 PM 66.9 °F 46.9 °F 49% 29.62 in 10.0 mi WNW 17.3 mph - N/A   Mostly Cloudy
1:53 PM 73.9 °F 46.0 °F 37% 29.58 in 10.0 mi West 17.3 mph - N/A   Partly Cloudy
2:53 PM 71.1 °F 34.0 °F 26% 29.59 in 10.0 mi West 17.3 mph 29.9 mph N/A   Overcast
3:53 PM 73.0 °F 30.0 °F 20% 29.59 in 10.0 mi West 19.6 mph 33.4 mph N/A   Mostly Cloudy
4:53 PM 71.1 °F 28.0 °F 20% 29.57 in 10.0 mi WSW 26.5 mph 34.5 mph N/A   Clear
5:53 PM 69.1 °F 24.1 °F 18% 29.58 in 10.0 mi WSW 28.8 mph 36.8 mph N/A   Clear
6:53 PM 63.0 °F 26.1 °F 25% 29.60 in 10.0 mi WSW 8.1 mph - N/A   Clear
7:53 PM 57.9 °F 28.9 °F 33% 29.63 in 10.0 mi Calm Calm - N/A   Mostly Cloudy
8:53 PM 62.1 °F 27.0 °F 26% 29.62 in 10.0 mi WNW 4.6 mph - N/A   Mostly Cloudy
9:07 PM 60.8 °F 26.6 °F 27% 29.67 in 10.0 mi West 8.1 mph - N/A Thunderstorm Mostly Cloudy
9:53 PM 55.0 °F 37.9 °F 53% 29.65 in 10.0 mi Calm Calm - 0.00 in   Mostly Cloudy
10:53 PM 54.0 °F 37.9 °F 55% 29.69 in 10.0 mi SSW 9.2 mph - N/A   Mostly Cloudy
11:53 PM 57.9 °F 30.0 °F 35% 29.72 in 10.0 mi Variable 4.6 mph - N/A   Overcast